This is the latest recevied weather packets stored in our database for station/object N4MGC. If no packets are shown the sender has not sent any weather packets the latest 10 day(s).
| Time | Temp. | Humidity | Pressure | Rain* | Wind** | Luminosity | Snow |
|---|---|---|---|---|---|---|---|
| 1777139323 | 25.56° C | 75% | 1009.9 hPa | 0 mm | - | 583 W/m² | - |
| 1777139020 | 25° C | 74% | 1009.6 hPa | 0 mm | - | 617 W/m² | - |
| 1777138717 | 25° C | 70% | 1009.8 hPa | 0 mm | - | 529 W/m² | - |
| 1777138412 | 26.11° C | 73% | 1009.8 hPa | 0 mm | - | 677 W/m² | - |
| 1777138109 | 25.56° C | 73% | 1009.8 hPa | 0 mm | - | 588 W/m² | - |
| 1777137805 | 25.56° C | 73% | 1009.8 hPa | 0 mm | - | 456 W/m² | - |
| 1777137501 | 25° C | 75% | 1009.8 hPa | 0 mm | - | 678 W/m² | - |
| 1777137198 | 24.44° C | 79% | 1009.8 hPa | 0 mm | - | 666 W/m² | - |
| 1777136895 | 25° C | 77% | 1009.9 hPa | 0 mm | - | 649 W/m² | - |
| 1777136591 | 24.44° C | 77% | 1010 hPa | 0 mm | - | 647 W/m² | - |
| 1777136289 | 24.44° C | 79% | 1010.1 hPa | 0 mm | - | 322 W/m² | - |
| 1777135986 | 24.44° C | 78% | 1010.2 hPa | 0 mm | - | 245 W/m² | - |
| 1777135681 | 23.89° C | 79% | 1010 hPa | 0 mm | - | 246 W/m² | - |
| 1777135378 | 24.44° C | 78% | 1010 hPa | 0 mm | - | 757 W/m² | - |
| 1777135074 | 23.89° C | 80% | 1010.1 hPa | 0 mm | - | 815 W/m² | - |
| 1777134772 | 23.33° C | 80% | 1010.1 hPa | 0 mm | - | 615 W/m² | - |
| 1777134467 | 23.33° C | 82% | 1009.9 hPa | 0 mm | - | 575 W/m² | - |
| 1777134164 | 23.89° C | 82% | 1010 hPa | 0 mm | - | 493 W/m² | - |
| 1777133861 | 23.89° C | 81% | 1010.1 hPa | 0 mm | - | 603 W/m² | - |
| 1777133558 | 23.33° C | 84% | 1009.8 hPa | 0 mm | - | 642 W/m² | - |
| 1777133257 | 22.78° C | 82% | 1009.9 hPa | 0 mm | - | 518 W/m² | - |
| 1777132956 | 22.78° C | 84% | 1010.2 hPa | 0 mm | - | 443 W/m² | - |
| 1777132652 | 22.22° C | 90% | 1010.1 hPa | 0 mm | - | 603 W/m² | - |
| 1777132349 | 22.22° C | 88% | 1010.1 hPa | 0 mm | - | 356 W/m² | - |
| 1777132046 | 21.67° C | 89% | 1010 hPa | 0 mm | - | 285 W/m² | - |
* Rain latest hour (hover to see other rain measurements)
** Current wind speed in m/s (hover to see current wind gust speed)